Date String (YYYY-MM-DD hh:mm:ss) UTC,Instrument flags,Ambient pressure (hPa),Sample flow (lpm),Bypass flow (lpm),Sample temperature (°C),Ambient temperature (°C),ASC tube jacket temperature (°C),LED temperature (°C),Box temperature (°C),Sample RH (%),Span deviation,Mass concentration (μg/m³),Mass concentration (μg/m³),Mass concentration (μg/m³)
DateTimeUTC,F1_M11,P_M11,Q1_M11,Q2_M11,T1_M11,T2_M11,T3_M11,T4_M11,T5_M11,U1_M11,ZSPAN_M11,X2_M11,X0_M11,X1_M11
2022-09-04 19:00:00,,0829.8,5.00,0.00,29.6,27.1,00.0,38.2,31.4,24.7,0000.0,0006.96,0015.25,0006.31
2022-09-04 19:01:00,,0829.7,5.00,0.00,29.5,27.3,00.0,38.1,31.3,24.9,0000.0,0007.02,0015.48,0006.33
2022-09-04 19:02:00,,0829.8,5.01,0.00,29.5,27.6,00.0,38.1,31.3,25.0,0000.0,0007.04,0015.93,0006.36
2022-09-04 19:03:00,,0829.7,5.01,0.00,29.5,27.9,00.0,38.1,31.4,24.6,0000.0,0007.07,0015.34,0006.37
2022-09-04 19:04:00,,0829.7,5.00,0.00,29.6,28.1,00.0,38.2,31.5,24.5,0000.0,0007.11,0014.88,0006.39
2022-09-04 19:05:00,,0829.6,4.99,0.00,29.6,28.4,00.0,38.2,31.5,24.8,0000.0,0007.19,0014.35,0006.42
2022-09-04 19:06:00,,0829.6,5.01,0.00,29.6,28.1,00.0,38.2,31.6,25.0,0000.0,0007.25,0013.81,0006.43
2022-09-04 19:07:00,,0829.7,5.00,0.00,29.6,26.9,00.0,38.2,31.5,25.0,0000.0,0007.26,0013.48,0006.46
2022-09-04 19:08:00,,0829.6,5.00,0.00,29.6,26.6,00.0,38.2,31.4,24.9,0000.0,0007.31,0013.38,0006.49
2022-09-04 19:09:00,,0829.7,4.99,0.00,29.6,26.9,00.0,38.2,31.4,24.6,0000.0,0007.33,0013.29,0006.49
2022-09-04 19:10:00,,0829.6,5.00,0.00,29.5,27.2,00.0,38.1,31.2,24.7,0000.0,0007.35,0013.53,0006.48
2022-09-04 19:11:00,,0829.6,4.99,0.00,29.5,27.5,00.0,38.1,31.3,24.7,0000.0,0007.36,0013.51,0006.47
2022-09-04 19:12:00,,0829.6,5.01,0.00,29.5,27.8,00.0,38.1,31.4,24.2,0000.0,0007.32,0013.36,0006.47
2022-09-04 19:13:00,,0829.6,5.00,0.00,29.6,28.1,00.0,38.2,31.4,24.2,0000.0,0007.34,0012.94,0006.46
2022-09-04 19:14:00,,0829.7,5.01,0.00,29.6,28.3,00.0,38.2,31.5,24.3,0000.0,0007.34,0012.88,0006.47
2022-09-04 19:15:00,,0829.6,4.98,0.00,29.6,28.2,00.0,38.2,31.5,24.2,0000.0,0007.33,0012.69,0006.47
2022-09-04 19:16:00,,0829.6,5.01,0.00,29.6,27.1,00.0,38.2,31.4,24.4,0000.0,0007.30,0012.82,0006.47
2022-09-04 19:17:00,,0829.6,5.00,0.00,29.6,26.8,00.0,38.2,31.4,24.4,0000.0,0007.32,0012.83,0006.49
2022-09-04 19:18:00,,0829.6,5.00,0.00,29.5,27.0,00.0,38.2,31.4,24.3,0000.0,0007.35,0013.43,0006.50
2022-09-04 19:19:00,,0829.6,4.99,0.00,29.5,27.3,00.0,38.1,31.2,24.5,0000.0,0007.38,0014.50,0006.49
2022-09-04 19:20:00,,0829.5,5.01,0.00,29.5,27.6,00.0,38.1,31.3,24.6,0000.0,0007.39,0014.52,0006.50
2022-09-04 19:21:00,,0829.5,5.01,0.00,29.5,27.8,00.0,38.1,31.3,24.8,0000.0,0007.45,0015.26,0006.54
2022-09-04 19:22:00,,0829.6,5.00,0.00,29.6,28.1,00.0,38.1,31.4,24.7,0000.0,0007.48,0015.38,0006.57
2022-09-04 19:23:00,,0829.5,4.98,0.00,29.6,28.3,00.0,38.2,31.5,24.6,0000.0,0007.54,0015.62,0006.61
2022-09-04 19:24:00,,0829.5,5.01,0.00,29.7,28.2,00.0,38.2,31.6,24.5,0000.0,0007.58,0015.61,0006.65
2022-09-04 19:25:00,,0829.6,4.99,0.00,29.6,27.2,00.0,38.2,31.5,25.1,0000.0,0007.59,0015.80,0006.70
2022-09-04 19:26:00,,0829.5,4.99,0.00,29.6,26.7,00.0,38.2,31.4,24.5,0000.0,0007.63,0015.79,0006.74
2022-09-04 19:27:00,,0829.5,5.00,0.00,29.6,27.0,00.0,38.2,31.4,24.4,0000.0,0007.65,0015.36,0006.78
2022-09-04 19:28:00,,0829.5,5.00,0.00,29.5,27.2,00.0,38.1,31.3,24.7,0000.0,0007.64,0015.19,0006.78
2022-09-04 19:29:00,,0829.6,5.00,0.00,29.5,27.6,00.0,38.1,31.3,24.4,0000.0,0007.61,0015.29,0006.78
2022-09-04 19:30:00,,0829.5,5.00,0.00,29.5,27.9,00.0,38.1,31.4,24.4,0000.0,0007.61,0014.23,0006.81
2022-09-04 19:31:00,,0829.5,5.01,0.00,29.6,28.1,00.0,38.2,31.4,24.5,0000.0,0007.65,0014.28,0006.83
2022-09-04 19:32:00,,0829.5,5.00,0.00,29.6,28.3,00.0,38.2,31.5,24.7,0000.0,0007.66,0013.76,0006.86
2022-09-04 19:33:00,,0829.5,4.99,0.00,29.6,27.7,00.0,38.2,31.5,23.9,0000.0,0007.67,0014.32,0006.87
2022-09-04 19:34:00,,0829.5,5.00,0.00,29.6,26.8,00.0,38.2,31.3,23.6,0000.0,0007.68,0014.12,0006.87
2022-09-04 19:35:00,,0829.6,5.00,0.00,29.5,26.8,00.0,38.2,31.3,23.8,0000.0,0007.73,0014.33,0006.88
2022-09-04 19:36:00,,0829.5,5.00,0.00,29.5,27.1,00.0,38.2,31.2,23.6,0000.0,0007.77,0014.64,0006.88
2022-09-04 19:37:00,,0829.5,5.00,0.00,29.5,27.4,00.0,38.1,31.2,23.4,0000.0,0007.75,0014.70,0006.87
2022-09-04 19:38:00,,0829.5,5.00,0.00,29.5,27.6,00.0,38.1,31.3,23.5,0000.0,0007.74,0015.18,0006.85
2022-09-04 19:39:00,,0829.5,5.00,0.00,29.5,27.9,00.0,38.2,31.4,23.5,0000.0,0007.73,0015.99,0006.84
2022-09-04 19:40:00,,0829.4,5.01,0.00,29.6,28.2,00.0,38.2,31.4,23.4,0000.0,0007.80,0015.86,0006.86
2022-09-04 19:41:00,,0829.5,5.01,0.00,29.6,28.4,00.0,38.2,31.5,23.5,0000.0,0007.81,0015.48,0006.87
2022-09-04 19:42:00,,0829.5,4.99,0.00,29.6,27.8,00.0,38.2,31.5,23.7,0000.0,0007.79,0015.70,0006.87
2022-09-04 19:43:00,,0829.5,4.99,0.00,29.6,26.8,00.0,38.2,31.4,23.6,0000.0,0007.81,0015.63,0006.86
2022-09-04 19:44:00,,0829.5,5.00,0.00,29.5,26.8,00.0,38.2,31.4,23.7,0000.0,0007.83,0016.90,0006.86
2022-09-04 19:45:00,,0829.5,5.00,0.00,29.5,27.1,00.0,38.1,31.3,23.7,0000.0,0007.85,0018.37,0006.87
2022-09-04 19:46:00,,0829.5,5.01,0.00,29.5,27.4,00.0,38.1,31.2,23.6,0000.0,0007.87,0018.91,0006.87
2022-09-04 19:47:00,,0829.4,5.00,0.00,29.5,27.7,00.0,38.1,31.3,23.5,0000.0,0007.87,0018.33,0006.88
2022-09-04 19:48:00,,0829.4,5.00,0.00,29.5,27.9,00.0,38.1,31.4,23.8,0000.0,0007.91,0018.61,0006.89
2022-09-04 19:49:00,,0829.4,5.01,0.00,29.6,28.2,00.0,38.2,31.5,23.5,0000.0,0007.93,0018.42,0006.90
2022-09-04 19:50:00,,0829.4,4.98,0.00,29.6,28.4,00.0,38.2,31.5,23.4,0000.0,0007.97,0018.13,0006.92
2022-09-04 19:51:00,,0829.3,5.00,0.00,29.7,28.0,00.0,38.2,31.5,23.6,0000.0,0007.93,0018.25,0006.93
2022-09-04 19:52:00,,0829.3,5.00,0.00,29.6,27.0,00.0,38.2,31.4,23.6,0000.0,0007.96,0019.02,0006.93
2022-09-04 19:53:00,,0829.3,5.01,0.00,29.6,26.8,00.0,38.2,31.4,23.3,0000.0,0007.98,0019.45,0006.94
2022-09-04 19:54:00,,0829.2,5.00,0.00,29.5,27.1,00.0,38.2,31.3,23.6,0000.0,0008.00,0019.75,0006.94
2022-09-04 19:55:00,,0829.2,5.00,0.00,29.5,27.4,00.0,38.1,31.2,23.4,0000.0,0007.96,0018.37,0006.93
2022-09-04 19:56:00,,0829.2,5.02,0.00,29.5,27.7,00.0,38.1,31.3,23.3,0000.0,0007.92,0017.08,0006.91
2022-09-04 19:57:00,,0829.2,5.00,0.00,29.5,27.9,00.0,38.1,31.4,23.1,0000.0,0007.89,0016.57,0006.90
2022-09-04 19:58:00,,0829.2,4.99,0.00,29.6,28.2,00.0,38.2,31.4,23.0,0000.0,0007.86,0017.02,0006.88
2022-09-04 19:59:00,,0829.2,5.00,0.00,29.6,28.3,00.0,38.2,31.5,22.5,0000.0,0007.84,0017.51,0006.87
